Flag for Belgium Weather past 2 weeks in Mons, Belgium

Now
68 °F

Partly sunny.


Feels Like: 68 °F
Forecast: 47 / 82 °F
Wind: 6 mph from Southwest

Location: Chievres

Current Time: Aug 28, 2015 at 5:44:58 PM

Latest Report: Aug 28, 2015 at 4:55 PM


Visibility: N/A

Pressure: 30.09 "Hg

Humidity: 56%

Dew point: 52 °F

Location of MonsLocation

Historic Weather in Mons — Graph

°F

Mons temperature yesterday

Maximum temperature yesterday: 68 °F (at 12:25 AM)
Minimum temperature yesterday: 55 °F (at 11:25 PM)
Average temperature yesterday: 60 °F

Past Weeks' High & Low Weather Summary

 TemperatureHumidityPressure
High91 °F (Aug 13, 4:55 PM)100% (Aug 13, 11:25 PM)30.24 "Hg (Aug 13, 11:25 PM)
Low48 °F (Aug 17, 3:55 AM)32% (Aug 22, 4:55 PM)29.45 "Hg (Aug 24, 2:25 PM)
Average64 °F77%29.92 "Hg
* Reported Aug 13 4:25 PM — Aug 28 4:25 PM, Mons, Weather by CustomWeather, © 2015

Note: Actual official high and low records may vary slightly from our data, if they occured in-between our weather recording intervals... More about our weather records

Advertising

Mons weather history for previous 24 hours

 ConditionsComfort  
Time TempWeatherWind HumidityBarometerVisibility
4:25 PM
Fri, Aug 28
70 °FPassing clouds.6 mph53%30.09 "HgN/A
3:55 PM70 °FPartly sunny.7 mph57%30.09 "HgN/A
3:25 PM68 °FPartly sunny.5 mph56%30.09 "HgN/A
2:55 PM70 °FBroken clouds.7 mph53%30.09 "HgN/A
2:25 PM68 °FBroken clouds.6 mph64%30.09 "HgN/A
1:55 PM66 °FScattered clouds.6 mph60%30.09 "HgN/A
1:25 PM68 °FBroken clouds.8 mph64%30.09 "HgN/A
12:55 PM64 °FPartly sunny.7 mph78%30.09 "HgN/A
12:25 PM64 °FPassing clouds.6 mph73%30.07 "HgN/A
11:55 AM63 °FScattered clouds.5 mph77%30.07 "HgN/A
11:25 AM61 °FPartly sunny.5 mph83%30.07 "HgN/A
10:55 AM59 °FPartly sunny.3 mph88%30.07 "HgN/A
10:25 AM57 °FPartly sunny.5 mph94%30.07 "Hg5 mi
9:55 AM55 °FLow clouds.5 mph100%30.07 "Hg5 mi
9:25 AM55 °FFog.6 mph94%30.04 "Hg3 mi
8:55 AM54 °FFog.5 mph100%30.04 "Hg1 mi
8:25 AM54 °FFog.6 mph100%30.01 "Hg0 mi
7:55 AM54 °FFog.7 mph94%30.01 "Hg1 mi
7:25 AM54 °FFog.7 mph94%30.01 "Hg0 mi
7:03 AM52 °FFog.6 mph100%29.98 "Hg2 mi
5:55 AM52 °FPassing clouds.5 mph100%29.95 "Hg3 mi
4:55 AM54 °FFog.6 mph94%29.98 "Hg1 mi
4:25 AM52 °FFog.6 mph100%29.92 "Hg3 mi
3:55 AM52 °FCool.6 mph100%29.92 "Hg3 mi
3:25 AM52 °FCool.5 mph100%29.92 "Hg4 mi
2:55 AM54 °FCool.3 mph94%29.92 "Hg5 mi
2:25 AM54 °FCool.5 mph94%29.89 "HgN/A
1:55 AM54 °FPassing clouds.5 mph94%29.89 "HgN/A
1:25 AM55 °FPassing clouds.6 mph94%29.89 "HgN/A
12:55 AM55 °FPassing clouds.6 mph94%29.89 "HgN/A
12:25 AM55 °FPassing clouds.6 mph94%29.89 "HgN/A
11:55 PM
Thu, Aug 27
55 °FPassing clouds.6 mph100%29.89 "HgN/A
11:25 PM55 °FPassing clouds.6 mph100%29.86 "HgN/A
10:55 PM57 °FOvercast.5 mph94%29.86 "HgN/A
10:25 PM57 °FOvercast.6 mph94%29.86 "HgN/A
9:55 PM57 °FLight rain. Overcast.7 mph94%29.86 "HgN/A
9:25 PM57 °FLight rain. Overcast.6 mph94%29.86 "HgN/A
8:55 PM57 °FLight rain. Overcast.6 mph94%29.86 "HgN/A
8:25 PM57 °FLight rain. Scattered clouds.7 mph94%29.83 "HgN/A
7:55 PM57 °FLight rain. Mostly cloudy.7 mph94%29.83 "HgN/A
7:25 PM57 °FLight rain. Overcast.7 mph94%29.83 "HgN/A
6:55 PM57 °FLight rain. Overcast.8 mph94%29.83 "HgN/A
6:25 PM57 °FLight rain. Overcast.8 mph94%29.83 "HgN/A
5:55 PM59 °FLight rain. Overcast.9 mph88%29.86 "HgN/A
5:25 PM59 °FBroken clouds.9 mph88%29.86 "HgN/A
Weather by CustomWeather, © 2015

See weather overviewHow to use our weather pages